TimeEDT,TemperatureF,Dew PointF,Humidity,Sea Level PressureIn,VisibilityMPH,Wind Direction,Wind SpeedMPH,Gust SpeedMPH,PrecipitationIn,Events,Conditions,WindDirDegrees,DateUTC
12:10 AM,51.8,30.2,44,30.25,10.0,NNW,11.5,16.1,N/A,,Clear,330,2013-05-26 04:10:00
12:30 AM,51.8,30.2,44,30.25,10.0,NNW,10.4,-,N/A,,Clear,340,2013-05-26 04:30:00
12:51 AM,51.8,30.2,44,30.25,10.0,NNW,6.9,-,N/A,,Clear,330,2013-05-26 04:51:00
1:11 AM,51.8,30.2,44,30.25,10.0,NW,5.8,-,N/A,,Clear,320,2013-05-26 05:11:00
1:31 AM,50.0,30.2,47,30.25,10.0,NNW,6.9,-,N/A,,Clear,330,2013-05-26 05:31:00
1:51 AM,50.0,30.2,47,30.25,10.0,North,3.5,-,N/A,,Clear,360,2013-05-26 05:51:00
2:11 AM,46.4,32.0,57,30.25,10.0,Calm,Calm,-,N/A,,Clear,0,2013-05-26 06:11:00
2:31 AM,46.4,32.0,57,30.25,10.0,Calm,Calm,-,N/A,,Clear,0,2013-05-26 06:31:00
2:51 AM,48.2,30.2,50,30.26,10.0,Calm,Calm,-,N/A,,Clear,0,2013-05-26 06:51:00
3:11 AM,48.2,30.2,50,30.26,10.0,NE,3.5,-,N/A,,Clear,40,2013-05-26 07:11:00
3:31 AM,46.4,30.2,53,30.26,10.0,Calm,Calm,-,N/A,,Clear,0,2013-05-26 07:31:00
3:51 AM,46.4,32.0,57,30.26,10.0,Calm,Calm,-,N/A,,Clear,0,2013-05-26 07:51:00
4:11 AM,44.6,32.0,61,30.26,10.0,Calm,Calm,-,N/A,,Clear,0,2013-05-26 08:11:00
4:31 AM,44.6,32.0,61,30.26,10.0,WNW,3.5,-,N/A,,Clear,300,2013-05-26 08:31:00
4:51 AM,42.8,32.0,66,30.27,10.0,Calm,Calm,-,N/A,,Clear,0,2013-05-26 08:51:00
5:11 AM,42.8,32.0,66,30.27,10.0,WNW,4.6,-,N/A,,Clear,290,2013-05-26 09:11:00
5:31 AM,42.8,33.8,70,30.27,10.0,Calm,Calm,-,N/A,,Clear,0,2013-05-26 09:31:00
5:51 AM,42.8,33.8,70,30.27,10.0,Calm,Calm,-,N/A,,Clear,0,2013-05-26 09:51:00
6:11 AM,41.0,33.8,76,30.28,10.0,Calm,Calm,-,N/A,,Clear,0,2013-05-26 10:11:00
6:31 AM,41.0,33.8,76,30.29,10.0,Calm,Calm,-,N/A,,Clear,0,2013-05-26 10:31:00
6:51 AM,42.8,33.8,70,30.29,10.0,Calm,Calm,-,N/A,,Clear,0,2013-05-26 10:51:00
7:11 AM,44.6,33.8,66,30.29,10.0,Calm,Calm,-,N/A,,Clear,0,2013-05-26 11:11:00
7:31 AM,44.6,35.6,71,30.30,10.0,Calm,Calm,-,N/A,,Clear,0,2013-05-26 11:31:00
7:51 AM,46.4,33.8,62,30.30,10.0,Calm,Calm,-,N/A,,Clear,0,2013-05-26 11:51:00
8:11 AM,50.0,33.8,54,30.30,10.0,Calm,Calm,-,N/A,,Clear,0,2013-05-26 12:11:00
8:31 AM,51.8,35.6,54,30.30,10.0,Calm,Calm,-,N/A,,Clear,0,2013-05-26 12:31:00
8:51 AM,51.8,33.8,50,30.29,10.0,Calm,Calm,-,N/A,,Clear,0,2013-05-26 12:51:00
9:12 AM,53.6,35.6,51,30.29,10.0,Calm,Calm,-,N/A,,Clear,0,2013-05-26 13:12:00
9:32 AM,55.4,33.8,44,30.29,10.0,Calm,Calm,-,N/A,,Clear,0,2013-05-26 13:32:00
9:52 AM,55.4,33.8,44,30.28,10.0,SE,4.6,-,N/A,,Clear,130,2013-05-26 13:52:00
10:12 AM,57.2,33.8,41,30.28,10.0,ESE,4.6,-,N/A,,Clear,110,2013-05-26 14:12:00
10:32 AM,59.0,33.8,39,30.27,10.0,Calm,Calm,-,N/A,,Clear,0,2013-05-26 14:32:00
10:52 AM,59.0,32.0,36,30.27,10.0,West,3.5,-,N/A,,Clear,280,2013-05-26 14:52:00
11:11 AM,60.8,28.4,29,30.27,10.0,NNW,8.1,16.1,N/A,,Clear,330,2013-05-26 15:11:00
11:32 AM,62.6,30.2,30,30.27,10.0,NNW,11.5,19.6,N/A,,Clear,330,2013-05-26 15:32:00
11:52 AM,62.6,28.4,27,30.27,10.0,WNW,5.8,10.4,N/A,,Clear,300,2013-05-26 15:52:00
12:12 PM,62.6,30.2,30,30.27,10.0,NNW,11.5,20.7,N/A,,Clear,340,2013-05-26 16:12:00
12:32 PM,64.4,28.4,26,30.26,10.0,NW,11.5,18.4,N/A,,Clear,320,2013-05-26 16:32:00
12:52 PM,64.4,28.4,26,30.25,10.0,North,11.5,18.4,N/A,,Clear,350,2013-05-26 16:52:00
1:12 PM,64.4,28.4,26,30.25,10.0,North,12.7,18.4,N/A,,Clear,350,2013-05-26 17:12:00
1:32 PM,64.4,28.4,26,30.25,10.0,NW,11.5,18.4,N/A,,Clear,320,2013-05-26 17:32:00
1:52 PM,64.4,28.4,26,30.24,10.0,NNW,11.5,17.3,N/A,,Clear,340,2013-05-26 17:52:00
2:12 PM,66.2,30.2,26,30.24,10.0,West,11.5,17.3,N/A,,Clear,280,2013-05-26 18:12:00
2:32 PM,68.0,30.2,24,30.23,10.0,NW,11.5,16.1,N/A,,Clear,320,2013-05-26 18:32:00
2:52 PM,68.0,30.2,24,30.23,10.0,West,10.4,-,N/A,,Clear,280,2013-05-26 18:52:00
3:12 PM,68.0,30.2,24,30.23,10.0,NW,10.4,18.4,N/A,,Clear,320,2013-05-26 19:12:00
3:32 PM,68.0,32.0,26,30.23,10.0,North,10.4,17.3,N/A,,Clear,350,2013-05-26 19:32:00
3:52 PM,69.8,32.0,25,30.22,10.0,WNW,9.2,17.3,N/A,,Clear,290,2013-05-26 19:52:00
4:12 PM,68.0,32.0,26,30.22,10.0,WNW,13.8,17.3,N/A,,Clear,300,2013-05-26 20:12:00
4:32 PM,68.0,30.2,24,30.22,10.0,NNW,10.4,20.7,N/A,,Clear,330,2013-05-26 20:32:00
4:52 PM,69.8,30.2,23,30.21,10.0,North,15.0,23.0,N/A,,Clear,350,2013-05-26 20:52:00
5:12 PM,68.0,32.0,26,30.22,10.0,NNW,10.4,-,N/A,,Clear,330,2013-05-26 21:12:00
5:32 PM,69.8,30.2,23,30.22,10.0,NNW,13.8,20.7,N/A,,Clear,340,2013-05-26 21:32:00
5:52 PM,68.0,30.2,24,30.22,10.0,NW,9.2,-,N/A,,Clear,320,2013-05-26 21:52:00
6:13 PM,68.0,30.2,24,30.22,10.0,NNW,6.9,20.7,N/A,,Clear,330,2013-05-26 22:13:00
6:33 PM,68.0,30.2,24,30.22,10.0,NNW,11.5,18.4,N/A,,Clear,330,2013-05-26 22:33:00
6:53 PM,68.0,30.2,24,30.22,10.0,NW,8.1,18.4,N/A,,Clear,320,2013-05-26 22:53:00
7:13 PM,66.2,32.0,28,30.22,10.0,NW,5.8,-,N/A,,Clear,310,2013-05-26 23:13:00
7:33 PM,66.2,32.0,28,30.22,10.0,NW,8.1,-,N/A,,Clear,310,2013-05-26 23:33:00
7:53 PM,64.4,30.2,28,30.22,10.0,NNW,11.5,-,N/A,,Clear,330,2013-05-26 23:53:00
8:13 PM,62.6,32.0,32,30.23,10.0,NNW,4.6,-,N/A,,Clear,340,2013-05-27 00:13:00
8:33 PM,62.6,32.0,32,30.24,10.0,NW,8.1,-,N/A,,Clear,310,2013-05-27 00:33:00
8:53 PM,62.6,32.0,32,30.24,10.0,NW,6.9,-,N/A,,Clear,320,2013-05-27 00:53:00
9:13 PM,62.6,32.0,32,30.25,10.0,NW,3.5,-,N/A,,Clear,310,2013-05-27 01:13:00
9:33 PM,60.8,32.0,34,30.25,10.0,Calm,Calm,-,N/A,,Clear,0,2013-05-27 01:33:00
9:53 PM,59.0,32.0,36,30.26,10.0,Calm,Calm,-,N/A,,Clear,0,2013-05-27 01:53:00
10:13 PM,55.4,32.0,41,30.27,10.0,Calm,Calm,-,N/A,,Clear,0,2013-05-27 02:13:00
10:33 PM,55.4,33.8,44,30.27,10.0,Calm,Calm,-,N/A,,Clear,0,2013-05-27 02:33:00
10:53 PM,53.6,35.6,51,30.28,10.0,Calm,Calm,-,N/A,,Clear,0,2013-05-27 02:53:00
11:13 PM,53.6,37.4,54,30.29,10.0,East,3.5,-,N/A,,Clear,80,2013-05-27 03:13:00
11:33 PM,50.0,35.6,58,30.29,10.0,North,4.6,-,N/A,,Clear,350,2013-05-27 03:33:00
11:53 PM,50.0,37.4,62,30.30,10.0,Calm,Calm,-,N/A,,Clear,0,2013-05-27 03:53:00